Airfield :
LOGIN :

Register | Disclaimer

   EN    FR    IT 

 










Legend :    VFR   Marginal VFR   IFR   Intensive IFR   Very Intensive IFR
Visi :
Ceiling :
>= 8 km
>= 3000ft
5 to 8 km
1000 to 3000 ft
1500m to 5 km
500 to 1000 ft
800 to 1500m
200 to 500 ft
< 800m
< 200 ft
Symbols :   Thunderstorms  Fog  Heavy snow  Heavy precipitations  Wind > 20 kt
SIGMETs :     Misc.  Thunderstorms  Icing  Turbulence  Mountain Waves  Volcanic Ashes







- Airport Elevation : 187 ft


ETNW - Wunstorf AB

CURRENT METAR :
  • 262320Z 29008KT 9999 BKN055 SCT210 06/04 Q1029 BLU

EXPIRED METARs :
  • 262220Z 27006KT 9999 BKN055 06/04 Q1029 BLU

TAF TAF ETNW
Valid from the 27 at 00:00 until the 28 at 00:00 UTC


262301Z 2700/2724 29010KT 9999 NSW BKN030
TEMPO 2700/2709 27007KT 4000 BR BKN010
PROB30 2700/2709 26007KT 3000 BR BKN003
TEMPO 2710/2724 27015G25KT 5000 -RA BKN015 BY ETGL
No reported NOTAMs for that airfield.



MET'MAP, your aeronautical weather chart ! - Copyright ORBIFLY December 2007 - Disclaimer

ORBIFLY MET'MAP TEAM :

Programming & Development : Alexandra Zaïnal
Concept & Development : Baudouin d'Aumeries
Co-Development & Prog : Marc-Olivier Méhu
Technical & hardware support : Manuel Goepfert

Contact : metmap@orbifly.com




SOURCES & CREDITS :

   NOAA